This demonstration page uses our WeatherBlox Daily Observations layout. Learn more.

Left ArrowRight Arrow

Hourly Observations for August 13, 2021

Temp ( °F °C ) Dew Point ( °F °C ) Humidity (%) Winds ( mph kmh ) Pressure ( in mb ) Visibility ( mi km ) Precip ( " mm )
12:51 am 00:51 Mostly Cloudy 80 26.7 64 17.8 58 58 NNW 8 13 29.89 1012 10 16 0.00 0.00
1:51 am 01:51 Mostly Cloudy 79 26.1 63 17.2 58 58 Calm 29.90 1013 10 16 0.00 0.00
2:51 am 02:51 Mostly Clear 78 25.6 64 17.8 62 62 SSW 7 11 29.90 1013 10 16 0.00 0.00
3:51 am 03:51 Mostly Cloudy 76 24.4 65 18.3 69 69 WNW 5 7 29.89 1012 10 16 0.00 0.00
4:51 am 04:51 Partly Cloudy 78 25.6 66 18.9 67 67 NNW 10 17 29.90 1012 10 16 0.00 0.00
5:51 am 05:51 Sunny 76 24.4 67 19.4 74 74 NW 8 13 29.92 1013 10 16 0.00 0.00
6:51 am 06:51 Sunny 77 25 67 19.4 71 71 NW 9 15 29.94 1014 10 16 0.00 0.00
7:51 am 07:51 Sunny 80 26.7 67 19.4 64 64 WNW 10 17 29.96 1015 10 16 0.00 0.00
8:51 am 08:51 Sunny 83 28.3 67 19.4 59 59 WNW 15 24 29.96 1015 10 16 0.00 0.00
9:51 am 09:51 Sunny 83 28.3 67 19.4 59 59 W 10 17 29.96 1015 10 16 0.00 0.00
10:51 am 10:51 Sunny 87 30.6 67 19.4 51 51 WNW 9 15 29.94 1014 10 16 0.00 0.00
11:51 am 11:51 Mostly Sunny 89 31.7 67 19.4 48 48 NW 8 13 29.92 1013 10 16 0.00 0.00
12:51 pm 12:51 Mostly Sunny 91 32.8 66 18.9 44 44 W 10 17 29.88 1012 10 16 0.00 0.00
1:51 pm 13:51 Sunny 93 33.9 65 18.3 40 40 W 14 22 29.85 1011 10 16 0.00 0.00
2:47 pm 14:47 Sunny 93 34 64 18 39 39 NNW 23 37 29.73 1007 10 16 0.00 0.00
2:51 pm 14:51 Sunny 93 33.9 64 17.8 38 38 NNW 17 28 29.83 1010 10 16 0.00 0.00
3:51 pm 15:51 Sunny 93 33.9 63 17.2 37 37 N 18 30 29.83 1010 10 16 0.00 0.00
4:38 pm 16:38 Sunny with Nearby Thunderstorms 89 31.7 61 16.1 39 39 N 15 24 29.73 1007 10 16 0.00 0.00
4:51 pm 16:51 Partly Cloudy 87 30.6 64 17.8 46 46 N 12 19 29.84 1011 10 16 0.00 0.00
5:33 pm 17:33 Partly Cloudy with Light Rain 79 26.1 64 17.8 60 60 SSW 21 33 29.87 1012 10 16 0.00 0.00
5:51 pm 17:51 Sunny 75 23.9 64 17.8 69 69 SSW 18 30 29.94 1014 10 16 0.00 0.00
6:51 pm 18:51 Sunny 76 24.4 64 17.8 67 67 E 8 13 29.96 1015 10 16 0.00 0.00
7:51 pm 19:51 Mostly Cloudy 74 23.3 66 18.9 76 76 E 10 17 29.98 1015 10 16 0.00 0.00
8:51 pm 20:51 Mostly Cloudy with Nearby Thunderstorms 75 23.9 66 18.9 74 74 E 9 15 29.99 1016 10 16 0.00 0.00
9:14 pm 21:14 Mostly Cloudy 75 23.9 66 18.9 74 74 E 12 19 29.98 1015 10 16 0.00 0.00
9:51 pm 21:51 Mostly Cloudy 74 23.3 66 18.9 76 76 E 8 13 30.01 1016 10 16 0.00 0.00
10:18 pm 22:18 Mostly Cloudy with Nearby Thunderstorms 75 23.9 65 18.3 71 71 E 9 15 29.97 1015 10 16 0.00 0.00
10:42 pm 22:42 Mostly Clear 75 23.9 65 18.3 71 71 ESE 6 9 29.97 1015 10 16 0.00 0.00
10:51 pm 22:51 Partly Cloudy 75 23.9 65 18.3 71 71 ESE 7 11 29.99 1016 10 16 0.00 0.00
11:51 pm 23:51 Mostly Cloudy 74 23.3 66 18.9 76 76 S 5 7 29.99 1016 10 16 0.00 0.00

Powered by AerisWeather